Spokane Fairchild, WA

7:12 PM PDT on July 27, 2017 (GMT -0700)
Fairchild Air Force Base

Weather History for KSKA - June, 2014

Change the Weather History Date:

Tuesday, June 17, 2014

  Actual Average Record
Temperature  
Mean Temperature 47 °F -  
Max Temperature 52 °F 71 °F 89 °F (2003)
Min Temperature 42 °F 48 °F 39 °F (2016)
Degree Days  
Heating Degree Days 18    
Moisture  
Dew Point 47 °F    
Average Humidity 93    
Maximum Humidity 100    
Minimum Humidity 83    
Precipitation  
Precipitation 0.40 in - - ()
Sea Level Pressure  
Sea Level Pressure 29.94 in    
Wind  
Wind Speed 7 mph (SW)    
Max Wind Speed 15 mph    
Max Gust Speed -    
Visibility 9 miles    
Events Rain    
Averages and records for this station are not official NWS values.
T = Trace of Precipitation, MM = Missing Value Source: NWS Daily Summary

Daily Weather History Graph

Daily Weather History Graph

Search for Another Location

Airport or City:

Trip Planner

Search our weather history database for the weather conditions in past years. The results will help you decide how hot, cold, wet, or windy it might be!

Date:

Astronomy

Jun. 17, 2014 Rise Set
Actual Time 4:52 AM PDT 8:51 PM PDT
Civil Twilight 4:11 AM PDT 9:31 PM PDT
Nautical Twilight 3:15 AM PDT 10:28 PM PDT
Astronomical Twilight 1:44 AM PDT 11:59 PM PDT
Moon 11:59 PM PDT (6/17) 10:32 AM PDT (6/17)
Length of Visible Light 17h 20m
Length of Day
15h 58m
Waning Gibbous, 72% of the Moon is Illuminated
Jun 17
Waning Gibbous
Jun 19
Last Quarter
Jun 27
New
Jul 5
First Quarter
Jul 12
Full

Hourly Weather History & Observations

Time (PDT) Temp. Windchill Dew Point Humidity Pressure Visibility Wind Dir Wind Speed Gust Speed Precip Events Conditions
12:58 AM 43.9 °F 41.3 °F 39.0 °F 83% 29.88 in 10.0 mi SSW 4.6 mph - N/A   Clear
1:58 AM 43.9 °F - 40.1 °F 87% 29.88 in 10.0 mi SSW 2.3 mph - N/A   Clear
2:58 AM 43.7 °F 38.1 °F 39.9 °F 87% 29.89 in 10.0 mi SSW 10.4 mph - N/A   Partly Cloudy
3:58 AM 44.2 °F 41.0 °F 40.5 °F 87% 29.90 in 10.0 mi SW 5.8 mph - N/A   Mostly Cloudy
4:02 AM 44.6 °F 41.4 °F 41.0 °F 87% 29.88 in 10.0 mi SSW 5.8 mph - N/A   Overcast
4:11 AM 42.8 °F 40.1 °F 41.0 °F 93% 29.89 in 10.0 mi South 4.6 mph - N/A   Mostly Cloudy
4:28 AM 42.8 °F 39.3 °F 39.2 °F 87% 29.89 in 10.0 mi SSW 5.8 mph - N/A   Mostly Cloudy
4:48 AM 42.8 °F 41.1 °F 41.0 °F 93% 29.88 in 10.0 mi WSW 3.5 mph - N/A   Mostly Cloudy
4:58 AM 43.5 °F 41.9 °F 40.1 °F 88% 29.91 in 10.0 mi South 3.5 mph - 0.00 in   Mostly Cloudy
5:58 AM 43.2 °F 37.9 °F 40.6 °F 91% 29.94 in 10.0 mi South 9.2 mph - N/A   Mostly Cloudy
6:07 AM 42.8 °F 37.0 °F 41.0 °F 93% 29.90 in 10.0 mi South 10.4 mph - N/A   Light Drizzle
6:21 AM 42.8 °F 37.5 °F 41.0 °F 93% 29.91 in 10.0 mi South 9.2 mph - N/A Rain Light Rain
6:56 AM 42.8 °F 38.0 °F 42.8 °F 100% 29.91 in 10.0 mi SW 8.1 mph - N/A Rain Light Rain
6:58 AM 43.2 °F 38.4 °F 42.1 °F 96% 29.93 in 10.0 mi SW 8.1 mph - 0.00 in Rain Light Rain
7:03 AM 42.8 °F 38.0 °F 42.8 °F 100% 29.91 in 10.0 mi SSW 8.1 mph - N/A Rain Light Rain
7:08 AM 42.8 °F 38.0 °F 42.8 °F 100% 29.91 in 10.0 mi SSW 8.1 mph - N/A Rain Light Rain
7:13 AM 42.8 °F 38.0 °F 42.8 °F 100% 29.91 in 10.0 mi SSW 8.1 mph - N/A Rain Light Rain
7:18 AM 44.6 °F 39.2 °F 42.8 °F 93% 29.90 in 9.0 mi SSW 10.4 mph - N/A Rain Light Rain
7:34 AM 44.6 °F 39.2 °F 44.6 °F 100% 29.90 in 6.0 mi SSW 10.4 mph - N/A   Overcast
7:38 AM 44.6 °F 39.7 °F 44.6 °F 100% 29.90 in 6.0 mi SSW 9.2 mph - N/A   Light Drizzle
7:48 AM 44.6 °F 39.2 °F 44.6 °F 100% 29.90 in 8.0 mi SW 10.4 mph - N/A   Overcast
7:58 AM 45.1 °F 38.4 °F 44.6 °F 98% 29.92 in 10.0 mi SW 15.0 mph - 0.00 in   Overcast
8:54 AM 46.4 °F 40.7 °F 44.6 °F 93% 29.91 in 10.0 mi SSW 12.7 mph - N/A   Light Drizzle
8:58 AM 45.7 °F 39.5 °F 45.1 °F 98% 29.94 in 10.0 mi SW 13.8 mph - 0.00 in Rain Light Rain
9:33 AM 46.4 °F 41.1 °F 46.4 °F 100% 29.92 in 5.0 mi WSW 11.5 mph - N/A Rain Light Rain
9:58 AM 46.4 °F 42.4 °F 46.4 °F 100% 29.95 in 5.0 mi WSW 8.1 mph - 0.03 in Rain Light Rain
10:58 AM 47.8 °F - 46.8 °F 96% 29.96 in 8.0 mi SW 12.7 mph - 0.03 in Rain Light Rain
11:13 AM 48.2 °F - 48.2 °F 100% 29.93 in 10.0 mi WSW 13.8 mph - N/A Rain Light Rain
11:33 AM 50.0 °F - 48.2 °F 94% 29.93 in 10.0 mi WSW 10.4 mph - N/A Rain Light Rain
11:48 AM 50.0 °F - 48.2 °F 94% 29.93 in 10.0 mi WSW 12.7 mph - N/A Rain Light Rain
11:58 AM 49.6 °F - 47.8 °F 94% 29.96 in 10.0 mi WSW 12.7 mph - 0.02 in Rain Light Rain
12:13 PM 50.0 °F - 48.2 °F 94% 29.93 in 10.0 mi West 9.2 mph - N/A Rain Light Rain
12:16 PM 50.0 °F - 48.2 °F 94% 29.93 in 10.0 mi WSW 11.5 mph - N/A Rain Light Rain
12:21 PM 50.0 °F - 48.2 °F 94% 29.93 in 10.0 mi West 10.4 mph - N/A Rain Light Rain
12:26 PM 50.0 °F - 46.4 °F 87% 29.93 in 10.0 mi WSW 10.4 mph - N/A Rain Light Rain
12:31 PM 50.0 °F - 48.2 °F 94% 29.93 in 8.0 mi West 10.4 mph - N/A Rain Light Rain
12:36 PM 50.0 °F - 48.2 °F 94% 29.93 in 6.0 mi WSW 8.1 mph - N/A Rain Light Rain
12:41 PM 50.0 °F - 48.2 °F 94% 29.94 in 5.0 mi West 6.9 mph - N/A Rain Rain
12:51 PM 50.0 °F - 48.2 °F 94% 29.94 in 4.0 mi West 6.9 mph - N/A Rain Rain
12:56 PM 50.0 °F - 48.2 °F 94% 29.94 in 5.0 mi WNW 8.1 mph - N/A Rain Rain
12:58 PM 49.8 °F - 47.7 °F 92% 29.96 in 5.0 mi WNW 8.1 mph - 0.02 in Rain Rain
1:18 PM 50.0 °F - 48.2 °F 94% 29.94 in 10.0 mi West 8.1 mph - N/A Rain Light Rain
1:38 PM 51.8 °F - 48.2 °F 88% 29.94 in 10.0 mi WNW 8.1 mph - N/A Rain Light Rain
1:43 PM 51.8 °F - 48.2 °F 88% 29.94 in 10.0 mi WNW 9.2 mph - N/A Rain Light Rain
1:53 PM 51.8 °F - 48.2 °F 88% 29.94 in 10.0 mi NW 6.9 mph - N/A Rain Light Rain
1:58 PM 51.4 °F - 48.7 °F 90% 29.96 in 10.0 mi WNW 5.8 mph - 0.01 in Rain Light Rain
2:23 PM 51.8 °F - 48.2 °F 88% 29.94 in 10.0 mi NNW 6.9 mph - N/A Rain Light Rain
2:58 PM 52.5 °F - 48.0 °F 85% 29.96 in 10.0 mi NNW 4.6 mph - 0.01 in Rain Light Rain
3:03 PM 51.8 °F - 48.2 °F 88% 29.95 in 10.0 mi NNW 5.8 mph - N/A Rain Light Rain
3:33 PM 51.8 °F - 48.2 °F 88% 29.95 in 9.0 mi NW 2.3 mph - N/A Rain Light Rain
3:38 PM 51.8 °F - 48.2 °F 88% 29.95 in 10.0 mi Variable 1.2 mph - N/A Rain Light Rain
3:39 PM 51.8 °F - 48.2 °F 88% 29.95 in 10.0 mi NW 3.5 mph - N/A Rain Light Rain
3:54 PM 51.8 °F - 48.2 °F 88% 29.96 in 10.0 mi North 2.3 mph - N/A Rain Light Rain
3:58 PM 52.0 °F - 48.6 °F 88% 29.99 in 9.0 mi NNW 4.6 mph - 0.01 in Rain Light Rain
4:03 PM 51.8 °F - 48.2 °F 88% 29.96 in 9.0 mi NNW 4.6 mph - N/A Rain Light Rain
4:08 PM 51.8 °F - 48.2 °F 88% 29.96 in 9.0 mi NNW 3.5 mph - N/A Rain Light Rain
4:13 PM 51.8 °F - 48.2 °F 88% 29.96 in 8.0 mi NNW 3.5 mph - N/A Rain Light Rain
4:23 PM 51.8 °F - 48.2 °F 88% 29.96 in 9.0 mi NNW 3.5 mph - N/A Rain Light Rain
4:28 PM 51.8 °F - 48.2 °F 88% 29.96 in 10.0 mi NNW 2.3 mph - N/A Rain Light Rain
4:33 PM 51.8 °F - 48.2 °F 88% 29.96 in 9.0 mi NW 2.3 mph - N/A Rain Light Rain
4:58 PM 51.6 °F - 48.7 °F 90% 29.99 in 7.0 mi Calm Calm - 0.02 in Rain Light Rain
5:58 PM 51.4 °F - 49.3 °F 92% 29.98 in 9.0 mi South 4.6 mph - 0.03 in Rain Light Rain
6:12 PM 51.8 °F - 48.2 °F 88% 29.96 in 10.0 mi South 2.3 mph - N/A Rain Light Rain
6:27 PM 51.8 °F - 48.2 °F 88% 29.96 in 10.0 mi South 3.5 mph - N/A Rain Light Rain
6:32 PM 51.8 °F - 48.2 °F 88% 29.96 in 10.0 mi SSW 2.3 mph - N/A Rain Light Rain
6:37 PM 51.8 °F - 48.2 °F 88% 29.97 in 10.0 mi South 3.5 mph - N/A Rain Light Rain
6:47 PM 51.8 °F - 48.2 °F 88% 29.97 in 10.0 mi SW 2.3 mph - N/A Rain Light Rain
6:57 PM 51.8 °F - 48.2 °F 88% 29.97 in 10.0 mi SW 5.8 mph - N/A Rain Light Rain
6:58 PM 51.1 °F - 48.4 °F 90% 29.99 in 10.0 mi SW 5.8 mph - 0.00 in Rain Light Rain
7:06 PM 51.8 °F - 48.2 °F 88% 29.97 in 9.0 mi WSW 3.5 mph - N/A Rain Light Rain
7:16 PM 51.8 °F - 48.2 °F 88% 29.97 in 5.0 mi SSW 2.3 mph - N/A Rain Light Rain
7:26 PM 51.8 °F - 48.2 °F 88% 29.98 in 7.0 mi SSW 4.6 mph - N/A Rain Light Rain
7:41 PM 50.0 °F - 50.0 °F 100% 29.97 in 9.0 mi SSW 5.8 mph - N/A Rain Light Rain
7:56 PM 50.0 °F - 50.0 °F 100% 29.97 in 10.0 mi SSE 2.3 mph - N/A Rain Light Rain
7:58 PM 50.0 °F - 50.0 °F 100% 29.99 in 10.0 mi SSE 2.3 mph - 0.04 in Rain Light Rain
8:28 PM 50.0 °F - 50.0 °F 100% 29.97 in 10.0 mi South 6.9 mph - N/A Rain Light Rain
8:43 PM 50.0 °F - 50.0 °F 100% 29.96 in 10.0 mi South 6.9 mph - N/A Rain Light Rain
8:48 PM 50.0 °F - 50.0 °F 100% 29.96 in 10.0 mi South 6.9 mph - N/A Rain Light Rain
8:58 PM 50.5 °F - 50.4 °F 99% 29.99 in 10.0 mi South 4.6 mph - 0.00 in Rain Light Rain
9:53 PM 50.0 °F - 50.0 °F 100% 29.97 in 8.0 mi SE 3.5 mph - N/A Rain Light Rain
9:58 PM 50.0 °F - 49.8 °F 99% 30.01 in 8.0 mi SE 5.8 mph - 0.02 in Rain Light Rain
10:49 PM 50.0 °F - 50.0 °F 100% 29.98 in 3.0 mi SSW 5.8 mph - N/A Rain Rain
10:53 PM 50.0 °F - 50.0 °F 100% 29.98 in 2.5 mi South 6.9 mph - N/A Rain Rain
10:57 PM 50.0 °F - 50.0 °F 100% 29.97 in 3.0 mi South 9.2 mph - N/A Rain Rain
10:58 PM 49.5 °F - 49.3 °F 99% 29.99 in 3.0 mi South 9.2 mph - 0.12 in Rain Rain
11:43 PM 50.0 °F - 48.2 °F 94% 29.96 in 9.0 mi South 10.4 mph - N/A Rain Light Rain
11:58 PM 48.9 °F - 48.7 °F 99% 29.99 in 9.0 mi SSE 6.9 mph - 0.04 in Rain Light Rain